This demonstration page uses our WeatherBlox Daily Observations layout. Learn more.

Left ArrowRight Arrow

39.01783, -85.05884

Hourly Observations for September 19, 2021

Temp ( °F °C ) Dew Point ( °F °C ) Humidity (%) Winds ( mph kmh ) Pressure ( in mb ) Visibility ( mi km ) Precip ( " mm )
12:52 am 00:52 Mostly Clear 73 22.8 64 17.8 74 74 S 3 6 30.10 1019 10 16 N/A
1:52 am 01:52 Clear 73 22.8 64 17.8 74 74 N N/A 30.10 1019 10 16 N/A
2:52 am 02:52 Mostly Clear 71 21.7 64 17.8 79 79 N 3 6 30.09 1019 10 16 N/A
3:52 am 03:52 Clear 71 21.7 65 18.3 81 81 NNE 3 6 30.09 1019 10 16 N/A
4:52 am 04:52 Mostly Clear 71 21.7 64 17.8 79 79 N N/A 30.09 1019 10 16 N/A
5:52 am 05:52 Mostly Cloudy 71 21.7 66 18.9 84 84 E 3 6 30.10 1019 9 14 N/A
6:52 am 06:52 Clear 70 21.1 66 18.9 87 87 ESE 3 6 30.11 1020 9 14 N/A
7:52 am 07:52 Mostly Cloudy 70 21.1 65 18.3 84 84 E 6 9 30.12 1020 7 11 N/A
8:52 am 08:52 Mostly Cloudy 72 22.2 66 18.9 82 82 E 5 7 30.12 1020 8 13 N/A
9:52 am 09:52 Mostly Cloudy 75 23.9 66 18.9 74 74 ESE 7 11 30.13 1020 10 16 N/A
10:52 am 10:52 Mostly Cloudy 79 26.1 65 18.3 62 62 ESE 7 11 30.13 1020 10 16 N/A
11:52 am 11:52 Mostly Cloudy 82 27.8 64 17.8 55 55 SE 10 17 30.12 1020 10 16 N/A
12:52 pm 12:52 Mostly Cloudy 84 28.9 63 17.2 49 49 ESE 12 19 30.11 1020 10 16 N/A
1:52 pm 13:52 Mostly Cloudy 84 28.9 60 15.6 44 44 ESE 12 19 30.09 1019 10 16 N/A
2:52 pm 14:52 Mostly Cloudy 85 29.4 61 16.1 45 45 E 12 19 30.06 1018 10 16 N/A
3:52 pm 15:52 Mostly Cloudy 85 29.4 61 16.1 45 45 ESE 12 19 30.05 1018 10 16 N/A
4:52 pm 16:52 Cloudy 83 28.3 62 16.7 49 49 SE 8 13 30.04 1017 10 16 N/A
5:52 pm 17:52 Cloudy 82 27.8 61 16.1 49 49 ESE 10 17 30.04 1017 10 16 N/A
6:52 pm 18:52 Cloudy 80 26.7 62 16.7 54 54 SE 8 13 30.04 1017 10 16 N/A
7:52 pm 19:52 Cloudy 79 26.1 63 17.2 58 58 SE 8 13 30.04 1017 10 16 N/A
8:52 pm 20:52 Cloudy 75 23.9 64 17.8 69 69 S 7 11 30.05 1018 10 16 N/A
9:52 pm 21:52 Cloudy 74 23.3 66 18.9 76 76 S 6 9 30.06 1018 10 16 N/A
10:52 pm 22:52 Cloudy 73 22.8 67 19.4 81 81 SSW 5 7 30.06 1018 10 16 N/A
11:52 pm 23:52 Cloudy 72 22.2 67 19.4 84 84 S 3 6 30.06 1018 10 16 N/A

Powered by AerisWeather